Wind_Speed
17 17 17 16 16 15 15 15 15 15 15 15 15 15 14 14 13 13 12 12 11 11 10 9 9 9 9 9 9 9 9 9 9 9 9 10 10 10 10 10 10 11 11
18 18 18 18 18 17 17 16 16 16 17 16 16 16 15 15 15 15 14 13 13 12 12 12 11 11 11 10 10 11 11 11 11 11 11 11 11 11 11 12 12 12 12
19 19 19 19 19 19 19 18 18 18 18 18 18 17 17 17 16 16 16 15 15 14 14 14 13 13 12 12 12 12 12 13 13 13 13 13 13 13 13 13 13 14 14
20 20 20 20 20 20 20 20 20 19 19 20 19 19 18 18 18 18 18 17 17 16 16 15 15 15 14 14 14 14 14 14 14 14 15 14 14 14 14 14 15 15 16
22 21 21 21 21 21 21 21 21 20 20 21 21 20 19 20 20 19 19 19 18 18 17 17 17 17 16 16 16 15 15 15 15 16 16 16 16 16 16 17 17 17 17
23 23 22 23 22 22 22 22 22 22 22 22 22 21 21 20 20 20 20 20 20 19 19 18 18 18 18 18 18 17 17 17 17 17 17 17 17 18 18 18 19 19 19
25 24 24 24 24 24 24 24 24 24 23 23 23 23 22 22 22 22 21 21 21 21 21 20 20 20 19 19 19 19 19 19 19 19 18 18 19 19 20 20 21 21 21
26 26 26 25 25 25 25 25 25 25 25 25 24 24 24 24 23 23 23 23 23 23 23 23 22 22 22 21 21 21 21 21 21 21 20 20 21 21 21 21 22 23 23
28 28 27 27 26 26 27 27 27 27 26 26 25 26 26 25 25 24 24 23 24 24 24 24 24 23 23 23 23 23 23 23 23 22 23 23 23 23 23 24 24 24 24
29 29 28 28 28 28 28 28 28 28 28 27 27 27 27 27 27 26 25 24 24 24 24 24 25 25 25 25 25 25 25 25 25 25 25 25 25 25 26 26 26 26 26
31 30 29 29 29 29 29 30 30 29 30 29 29 29 29 29 29 29 27 26 25 24 25 25 25 26 26 26 26 26 26 26 26 27 27 27 27 27 27 28 28 28 28
31 30 30 30 30 30 30 30 31 31 31 31 31 30 31 31 31 31 30 28 27 27 26 26 26 27 27 27 27 27 27 27 27 28 28 29 29 29 29 29 30 30 30
32 32 31 31 31 31 31 32 32 32 32 31 32 32 32 32 32 33 31 30 30 29 28 28 27 28 28 28 28 28 28 28 29 29 30 30 31 31 31 31 31 31 32
34 33 33 32 32 32 32 32 33 33 33 32 32 32 32 32 33 33 33 33 32 31 30 29 29 29 29 29 29 29 30 30 31 31 32 32 32 33 33 33 32 32 33
35 35 34 34 34 34 33 33 33 33 33 33 32 32 33 33 33 34 35 34 34 33 32 31 30 31 31 30 31 31 31 32 32 33 33 33 34 34 34 34 34 34 34
36 35 35 35 35 35 34 34 34 33 33 33 33 33 33 33 34 34 35 35 35 35 35 34 33 33 33 32 32 32 32 32 33 33 34 34 34 35 35 35 35 35 35
36 36 36 36 35 35 35 34 34 33 32 32 32 33 33 34 34 34 34 34 34 35 35 34 33 33 33 33 33 33 33 33 33 34 35 35 35 36 36 36 36 37 37
37 36 35 35 35 35 35 35 35 35 34 34 33 33 34 34 34 34 34 34 34 34 34 35 34 34 33 34 34 34 34 34 35 35 36 36 36 36 36 36 37 38 37
37 36 36 35 35 35 35 36 36 36 35 34 34 34 34 35 35 34 34 34 34 34 35 36 36 35 34 34 35 35 35 35 35 36 37 37 36 36 36 37 37 38 38
37 37 36 35 35 35 35 35 35 36 35 35 35 35 34 34 35 35 35 36 35 36 36 37 36 36 36 35 36 36 36 36 36 37 37 37 37 37 37 38 38 39 39
38 38 37 36 36 36 36 36 35 36 36 36 36 36 35 35 35 35 36 36 36 36 37 37 37 37 37 36 36 37 37 37 38 38 38 38 38 38 38 39 39 40 40
38 38 38 37 36 36 37 37 36 36 36 37 37 37 37 37 36 35 36 36 36 36 37 37 37 38 37 37 37 37 38 39 39 39 39 39 39 39 39 39 39 40 40
38 37 37 37 37 37 37 37 37 37 36 37 38 38 38 38 38 38 36 36 36 37 37 37 37 38 37 37 38 39 39 39 40 40 40 40 39 39 39 39 40 40 40
39 38 37 37 37 37 38 38 38 37 37 37 38 38 38 38 39 38 38 38 37 37 37 37 37 37 37 37 38 39 40 40 41 41 40 40 40 40 40 40 40 40 40
37 38 37 37 36 36 37 38 38 38 37 37 37 38 38 39 38 38 38 38 38 38 37 38 38 38 38 38 38 39 40 40 40 41 40 41 41 41 41 40 40 40 41
37 36 36 36 36 36 36 37 38 38 38 38 38 38 38 39 39 39 38 38 39 39 39 38 39 38 39 39 39 40 40 40 40 40 40 41 41 41 41 41 41 41 42
Wind_Direction
247 248 247 246 244 243 241 240 238 236 233 232 231 232 233 234 233 232 234 237 240 243 244 244 245 247 248 252 255 258 258 260 263 265 267 269 271 275 277 278 279 281 282
248 248 248 248 245 244 243 241 240 238 236 235 234 236 237 238 236 236 238 240 244 247 246 246 248 251 252 256 258 261 260 261 263 264 266 269 271 273 274 275 276 278 280
248 248 249 248 246 246 245 243 242 242 240 238 237 238 240 241 240 239 241 243 246 249 249 249 251 253 255 258 260 261 260 262 264 264 265 269 271 272 274 275 275 277 278
249 249 249 249 248 247 247 246 243 243 242 241 239 240 242 242 243 243 242 244 247 248 249 251 253 255 257 258 260 261 261 263 265 265 266 268 270 272 273 275 276 278 278
250 250 249 249 249 249 248 248 247 244 244 243 242 241 242 243 243 244 244 246 247 247 250 252 254 256 258 259 261 262 263 262 265 266 267 268 269 270 272 273 275 277 277
251 251 250 250 250 250 249 249 248 247 246 244 243 241 242 243 244 244 245 247 249 250 251 253 255 256 258 260 261 262 262 263 264 266 268 268 269 270 271 273 275 276 276
251 251 251 250 250 250 249 249 249 248 247 246 245 243 243 244 245 246 247 249 250 251 253 254 256 257 259 260 261 262 262 263 264 265 267 269 270 271 272 273 275 275 276
250 251 252 251 250 250 250 249 249 249 248 247 246 245 244 245 246 247 248 250 250 253 254 255 255 258 260 261 262 263 263 264 263 264 266 268 270 272 273 275 276 276 276
249 251 252 252 251 251 251 250 250 249 249 248 246 246 246 247 247 248 250 251 252 252 254 254 256 259 260 261 263 264 264 263 263 264 267 269 271 272 273 275 276 277 277
249 250 251 251 252 251 250 250 250 250 250 248 245 246 246 247 247 248 250 251 251 252 253 254 256 259 261 263 264 264 264 264 263 265 267 269 271 273 274 275 277 278 278
249 250 251 251 251 252 251 250 249 249 249 248 247 246 246 247 248 250 252 252 251 252 255 256 257 260 261 263 264 265 265 266 266 267 269 270 272 273 274 275 277 279 279
249 249 250 250 251 252 251 250 249 249 249 249 249 248 249 249 250 252 252 252 252 254 256 258 259 261 262 264 264 265 266 267 268 269 270 272 273 274 275 276 277 278 278
249 249 250 250 251 252 252 250 250 249 249 250 250 250 250 250 250 251 252 253 254 256 257 258 260 262 263 263 264 265 267 268 269 271 272 273 274 275 276 277 278 278 279
249 249 250 249 250 251 252 251 250 250 250 250 250 250 250 251 251 253 252 254 255 256 258 259 261 262 262 263 264 265 268 269 270 271 272 273 274 274 275 276 277 278 278
249 250 250 250 250 250 251 251 250 250 250 249 250 250 250 251 253 255 255 257 257 258 259 260 262 262 262 264 265 266 268 270 271 272 272 273 274 275 275 276 276 277 278
249 250 249 249 249 250 250 251 251 251 250 250 251 251 251 252 254 256 257 257 257 258 260 261 262 262 262 264 265 267 268 269 271 272 273 274 275 275 275 275 276 276 277
249 249 249 249 248 249 250 251 250 250 251 251 252 252 252 253 255 256 257 258 258 258 260 261 261 262 263 264 265 267 268 270 272 273 274 275 275 276 275 275 275 276 276
248 248 248 249 249 250 250 250 251 251 252 252 253 254 252 253 255 257 257 256 257 258 260 260 262 262 264 265 266 268 269 270 272 273 275 275 276 276 276 276 276 276 275
249 249 249 249 250 250 250 250 250 250 252 253 253 255 255 254 255 256 256 255 256 258 259 261 262 262 265 266 267 268 269 270 271 273 275 275 276 277 277 277 277 276 276
248 248 248 249 249 249 250 250 250 251 251 252 253 255 256 255 255 255 255 255 256 258 259 261 263 264 266 266 267 268 269 270 272 274 275 275 276 277 277 276 276 277 277
248 248 247 248 248 249 249 250 251 251 251 252 252 253 256 256 255 255 256 256 257 259 260 262 264 265 266 267 268 269 269 270 272 274 275 276 277 277 278 278 278 278 278
247 247 247 247 247 248 249 250 250 250 251 252 252 253 254 256 256 256 255 256 258 260 262 262 264 265 267 269 271 272 271 270 273 273 274 276 277 278 279 280 279 279 279
245 246 246 247 247 248 248 249 249 249 251 252 252 253 254 254 255 255 255 257 259 261 262 262 264 267 268 270 272 273 274 273 273 273 274 275 276 277 278 279 279 279 279
245 245 245 246 248 248 248 247 248 249 251 252 252 253 253 255 256 256 257 258 259 260 261 262 263 266 268 270 273 274 274 274 274 273 273 274 274 276 278 279 279 278 279
245 246 246 247 248 249 248 248 248 248 250 252 252 253 254 255 256 257 258 258 259 259 260 261 263 265 268 271 273 274 274 275 275 273 273 274 275 276 277 279 278 278 279
244 245 246 248 249 250 249 248 248 249 250 251 252 253 254 256 257 258 258 258 259 260 262 263 264 266 268 270 273 274 275 276 275 274 274 275 276 276 277 278 278 278 279
Height
5843 5844 5844 5845 5846 5847 5847 5848 5849 5849 5850 5851 5852 5853 5854 5854 5855 5855 5856 5857 5857 5857 5858 5858 5858 5859 5859 5859 5859 5859 5859 5859 5859 5859 5859 5859 5859 5859 5858 5858 5858 5857 5857
5840 5840 5841 5842 5843 5844 5844 5845 5846 5847 5847 5848 5849 5850 5851 5852 5852 5853 5854 5854 5855 5855 5855 5856 5856 5856 5857 5857 5857 5857 5857 5857 5857 5857 5857 5857 5857 5856 5856 5856 5856 5855 5855
5836 5837 5838 5839 5840 5841 5841 5842 5843 5844 5844 5845 5846 5847 5848 5849 5849 5850 5851 5852 5852 5852 5853 5853 5854 5854 5854 5855 5855 5855 5855 5855 5855 5855 5855 5854 5854 5854 5854 5853 5853 5853 5853
5832 5833 5834 5835 5836 5837 5838 5838 5839 5840 5841 5842 5843 5844 5845 5846 5846 5847 5848 5849 5849 5850 5850 5850 5851 5851 5851 5852 5852 5852 5852 5852 5852 5852 5852 5852 5851 5851 5851 5851 5851 5850 5850
5828 5829 5830 5831 5832 5833 5834 5834 5835 5836 5837 5838 5839 5840 5841 5842 5843 5844 5844 5845 5846 5846 5847 5847 5848 5848 5848 5848 5848 5849 5849 5849 5849 5849 5849 5848 5848 5848 5848 5848 5847 5847 5847
5824 5825 5826 5826 5827 5828 5829 5830 5831 5832 5833 5834 5836 5837 5837 5838 5839 5840 5841 5841 5842 5843 5843 5844 5844 5844 5845 5845 5845 5845 5845 5845 5845 5845 5845 5845 5845 5845 5844 5844 5844 5843 5843
5819 5820 5821 5822 5822 5823 5824 5825 5826 5827 5829 5830 5831 5832 5833 5834 5835 5836 5837 5837 5838 5839 5839 5840 5840 5841 5841 5841 5841 5841 5842 5842 5841 5841 5841 5841 5841 5841 5840 5840 5840 5839 5839
5814 5815 5816 5817 5817 5818 5819 5820 5821 5822 5824 5825 5826 5828 5829 5829 5830 5831 5832 5833 5833 5834 5835 5835 5836 5836 5836 5837 5837 5837 5837 5837 5837 5837 5837 5837 5837 5837 5836 5835 5835 5835 5834
5808 5809 5810 5811 5812 5813 5814 5815 5816 5817 5819 5820 5821 5823 5824 5825 5826 5826 5827 5828 5828 5829 5830 5830 5831 5831 5832 5832 5832 5832 5832 5832 5832 5832 5832 5832 5832 5832 5831 5831 5830 5830 5829
5802 5803 5804 5805 5806 5807 5808 5809 5810 5812 5813 5814 5816 5817 5819 5820 5820 5821 5822 5823 5823 5824 5824 5825 5826 5826 5827 5827 5827 5827 5827 5827 5827 5827 5827 5827 5827 5826 5826 5826 5825 5824 5824
5796 5797 5798 5799 5800 5801 5802 5803 5804 5806 5807 5808 5810 5811 5813 5814 5815 5815 5817 5817 5818 5819 5819 5820 5820 5821 5821 5822 5822 5822 5822 5822 5822 5822 5822 5822 5821 5821 5820 5820 5819 5818 5818
5789 5791 5792 5793 5794 5795 5796 5797 5798 5799 5801 5802 5804 5805 5807 5808 5809 5810 5811 5812 5812 5813 5814 5814 5815 5815 5815 5816 5816 5816 5816 5816 5816 5816 5816 5816 5815 5815 5814 5813 5813 5812 5811
5782 5784 5785 5786 5787 5788 5789 5790 5791 5793 5794 5796 5797 5799 5800 5801 5803 5804 5805 5806 5806 5807 5807 5808 5809 5809 5809 5810 5810 5810 5810 5810 5810 5810 5809 5809 5808 5808 5807 5806 5805 5805 5804
5775 5776 5778 5779 5780 5781 5782 5784 5785 5786 5788 5789 5791 5792 5794 5795 5796 5797 5798 5799 5800 5800 5801 5802 5803 5803 5803 5804 5804 5804 5804 5804 5804 5803 5803 5802 5801 5801 5800 5799 5798 5797 5796
5767 5768 5770 5771 5773 5774 5775 5776 5778 5779 5781 5782 5784 5785 5787 5788 5789 5790 5791 5792 5793 5793 5794 5795 5796 5796 5797 5797 5797 5797 5797 5797 5797 5796 5795 5795 5794 5793 5792 5791 5790 5789 5788
5759 5761 5762 5764 5765 5766 5768 5769 5770 5772 5773 5775 5776 5778 5779 5780 5781 5782 5783 5785 5786 5787 5787 5788 5789 5790 5790 5790 5790 5790 5790 5790 5789 5789 5788 5787 5786 5785 5784 5783 5782 5781 5780
5751 5752 5754 5755 5757 5758 5760 5761 5762 5764 5766 5767 5769 5770 5771 5773 5774 5775 5776 5777 5778 5779 5780 5781 5781 5782 5782 5783 5783 5783 5782 5782 5782 5781 5780 5779 5778 5777 5776 5775 5773 5772 5771
5742 5744 5745 5747 5748 5750 5752 5753 5754 5756 5758 5760 5761 5762 5763 5765 5766 5767 5768 5770 5771 5772 5773 5774 5774 5775 5775 5775 5775 5775 5775 5774 5774 5773 5772 5771 5770 5769 5768 5766 5765 5763 5762
5733 5735 5737 5738 5740 5742 5743 5745 5746 5748 5750 5752 5753 5754 5755 5756 5758 5759 5760 5762 5763 5764 5765 5766 5767 5767 5767 5767 5767 5767 5767 5766 5765 5764 5763 5762 5761 5760 5759 5758 5756 5755 5753
5724 5726 5728 5730 5731 5733 5735 5736 5738 5740 5742 5743 5745 5746 5747 5748 5750 5751 5752 5753 5755 5756 5757 5758 5758 5759 5759 5759 5759 5759 5759 5758 5757 5756 5755 5754 5753 5751 5750 5749 5747 5746 5744
5714 5717 5719 5721 5723 5725 5726 5728 5730 5732 5734 5735 5737 5738 5739 5741 5742 5743 5744 5745 5747 5748 5749 5749 5750 5750 5750 5751 5751 5751 5751 5750 5749 5748 5746 5745 5744 5743 5741 5739 5738 5736 5735
5705 5707 5710 5712 5714 5716 5718 5720 5722 5724 5725 5727 5728 5730 5731 5732 5734 5735 5736 5737 5738 5740 5740 5741 5741 5742 5742 5742 5742 5742 5742 5742 5741 5739 5738 5736 5735 5733 5732 5730 5728 5727 5725
5695 5697 5700 5703 5704 5706 5708 5710 5712 5714 5716 5718 5720 5721 5723 5724 5725 5726 5728 5729 5730 5731 5731 5732 5733 5734 5734 5733 5733 5733 5732 5732 5732 5731 5729 5727 5726 5724 5723 5721 5719 5717 5716
5685 5687 5690 5693 5695 5697 5699 5701 5703 5706 5708 5710 5711 5712 5714 5715 5717 5718 5719 5720 5721 5722 5723 5724 5724 5725 5724 5724 5724 5723 5722 5721 5721 5721 5720 5718 5716 5715 5714 5712 5710 5708 5707
5675 5678 5680 5683 5685 5687 5690 5692 5694 5696 5698 5700 5702 5703 5705 5706 5708 5709 5710 5711 5712 5713 5714 5714 5715 5715 5715 5715 5715 5714 5713 5712 5710 5710 5710 5708 5706 5705 5704 5702 5700 5699 5697
5665 5668 5671 5674 5676 5678 5680 5682 5685 5687 5689 5690 5692 5694 5696 5697 5698 5699 5700 5701 5702 5703 5704 5705 5705 5706 5706 5706 5705 5704 5703 5703 5701 5700 5699 5699 5697 5696 5694 5692 5691 5689 5687